Theta_e
316 315 314 314 312 314 317 319 321 325 322 319 319 317 315 312 311 304 303 309 310 315 311 303 303 301 301 299 301 302 291 287 289 290 292 296 295 299 300 298 298 301 306 309 313
316 316 315 313 312 312 315 317 320 323 323 319 318 317 314 312 305 302 313 319 317 316 302 299 297 298 294 295 296 295 288 289 294 294 292 293 294 296 296 296 296 298 302 304 307
315 316 315 313 313 312 313 315 319 322 322 319 319 317 314 308 299 299 318 317 314 309 302 300 298 296 291 292 290 293 289 293 292 293 292 290 290 294 294 292 295 295 297 301 303
315 315 313 313 314 312 311 313 318 324 320 318 319 316 313 302 287 302 318 314 314 304 301 297 294 291 287 287 289 287 289 290 291 292 291 290 292 290 292 293 298 298 299 300 299
315 314 313 313 311 310 311 312 317 321 320 319 318 315 304 297 297 309 312 309 305 302 297 295 291 290 286 287 288 286 287 290 292 291 291 292 290 290 290 293 295 296 296 297 298
315 313 313 312 311 311 311 314 316 322 319 319 317 311 301 294 308 307 302 302 301 300 297 296 293 292 289 288 286 288 288 288 289 289 290 288 288 288 290 293 292 294 295 296 298
311 313 312 310 311 311 313 314 316 319 319 318 313 305 297 295 305 302 303 300 301 300 296 297 297 293 291 287 290 289 284 285 286 288 288 290 285 286 291 291 290 291 292 294 296
312 312 311 310 311 312 314 318 320 320 319 315 310 299 292 304 305 301 301 300 302 302 299 300 298 294 291 291 286 284 283 279 285 287 289 288 283 288 291 291 292 292 293 294 296
312 311 311 313 318 317 317 319 318 318 315 311 299 296 291 304 299 298 300 298 299 300 300 300 297 290 289 283 280 281 278 278 282 288 287 287 283 288 292 291 290 292 293 294 295
313 314 314 316 318 317 316 316 315 309 305 301 299 291 294 292 297 298 299 300 297 296 294 292 288 284 283 281 276 276 277 278 278 285 286 284 283 288 290 290 290 291 292 293 294
315 315 315 314 314 313 310 306 297 295 296 292 292 291 293 297 299 297 299 297 295 291 285 288 280 278 280 283 282 281 279 278 282 286 284 283 284 286 290 291 290 291 292 293 294
313 313 313 312 311 310 305 297 297 297 290 296 295 294 296 298 291 295 299 291 290 284 287 283 278 284 285 285 283 281 280 280 283 286 284 284 284 288 290 290 291 292 293 294 293
313 313 312 312 310 305 300 299 303 298 290 292 296 295 295 297 292 292 296 293 288 285 286 280 284 288 286 285 284 284 280 280 280 285 287 284 282 285 289 293 294 295 296 295 295
312 312 311 311 304 301 298 302 302 297 281 286 291 294 296 296 290 299 300 294 289 285 286 283 288 286 285 284 286 280 286 285 284 282 279 288 278 284 289 290 292 294 296 297 298
311 310 309 308 299 297 300 301 300 292 271 287 291 300 297 293 293 294 300 294 286 287 288 282 285 286 285 287 288 284 289 287 286 284 284 283 281 282 289 287 288 291 297 301 302
309 308 308 300 298 297 299 298 291 279 269 280 291 290 290 292 293 295 296 299 297 291 290 289 292 290 289 290 291 291 288 288 287 285 277 280 280 280 286 286 288 292 299 300 301
308 308 303 301 293 299 296 290 279 272 283 282 284 289 288 288 291 291 290 290 286 284 278 285 287 290 291 287 292 290 285 276 275 275 275 282 281 283 288 289 289 291 295 296 298
308 304 301 300 298 296 292 284 273 281 281 287 287 288 284 288 289 291 288 286 289 290 286 281 278 286 290 288 287 289 287 281 274 275 278 285 281 285 292 291 290 293 295 295 295
305 296 295 297 298 293 288 275 277 282 286 285 286 283 283 286 287 288 287 286 287 289 284 283 281 289 291 293 293 288 285 291 284 283 280 281 285 291 292 291 291 290 292 293 292
294 292 293 297 296 291 284 281 282 286 288 287 282 283 280 282 283 284 283 288 288 291 289 286 283 288 291 294 293 290 292 282 282 275 274 279 279 283 286 287 290 290 290 290 290
292 289 295 296 293 288 279 280 285 290 290 286 283 282 282 282 282 281 283 287 290 289 289 287 285 283 287 286 285 285 283 284 284 282 277 274 280 290 288 291 292 290 289 288 288
289 283 294 294 285 282 282 286 293 289 291 289 288 286 283 284 282 282 283 286 291 291 285 288 283 278 282 287 287 287 284 283 279 278 279 279 281 295 294 294 293 289 287 287 288
286 286 293 293 279 281 284 286 288 288 288 288 286 288 287 284 282 283 285 290 292 290 286 287 281 275 277 281 284 284 285 285 283 281 278 277 281 292 291 292 290 288 286 287 287
286 281 287 287 284 282 282 284 284 289 289 289 287 287 285 283 285 283 284 289 290 290 297 292 282 279 274 279 282 282 283 283 282 277 279 279 281 286 288 289 289 287 286 286 286
286 283 283 280 283 283 283 284 284 283 288 289 286 287 284 281 282 282 284 286 288 291 288 287 280 278 281 283 283 283 283 282 277 281 279 280 281 285 287 288 289 289 287 286 287
286 285 283 282 283 282 284 285 284 285 286 285 285 286 285 282 284 282 283 283 284 286 284 285 280 281 278 282 281 280 281 281 282 283 282 282 282 287 289 289 289 289 287 286 286
289 288 287 283 281 280 282 285 287 288 288 289 288 285 284 286 288 288 288 287 286 283 284 282 281 279 275 279 278 275 278 280 282 284 284 281 285 286 286 288 289 289 288 287 287
Wind_Speed
9 8 3 4 2 4 7 6 1 12 14 12 11 9 6 4 6 5 10 1 2 6 5 3 6 5 5 4 5 1 4 2 2 3 1 4 5 2 1 3 2 2 2 3 8
10 12 9 3 1 2 6 4 4 3 17 14 12 10 6 4 12 12 5 9 8 8 5 4 3 5 4 4 4 4 2 6 2 0 2 6 2 3 3 2 4 6 7 4 7
10 12 8 3 4 3 4 5 4 4 18 14 14 10 6 1 7 5 9 11 9 6 5 2 3 4 5 4 5 1 2 2 1 1 3 3 5 2 4 7 8 6 5 9 6
11 9 4 6 6 4 1 4 4 18 15 9 12 10 6 3 5 4 8 11 13 7 5 6 5 4 4 3 2 3 3 1 2 2 4 5 3 6 12 11 7 10 8 5 11
12 10 3 4 5 4 1 2 3 9 18 11 11 8 4 8 4 6 14 7 9 8 6 4 6 3 4 2 1 2 0 4 4 9 8 7 13 10 7 12 9 10 11 13 13
13 10 5 5 5 5 3 3 4 16 20 13 11 4 5 10 3 3 7 7 7 7 8 7 3 3 5 2 2 2 3 6 6 6 7 6 7 2 6 7 13 13 14 13 13
5 8 5 3 2 5 6 2 4 19 20 15 9 7 18 6 2 6 7 4 4 4 6 4 2 5 3 3 2 1 5 5 4 3 4 3 8 10 11 7 12 14 12 12 14
7 7 3 3 5 6 7 12 23 21 17 12 7 6 7 4 2 7 3 5 7 5 4 4 6 6 3 1 4 3 3 5 2 3 3 2 12 5 5 6 14 11 12 14 16
10 8 7 10 6 14 16 25 20 16 12 6 8 8 5 4 4 2 3 4 3 5 7 5 5 3 4 3 3 6 2 3 8 1 3 3 12 7 5 10 17 19 18 16 17
11 8 12 22 26 27 25 17 13 8 9 4 4 9 4 1 1 2 3 6 6 3 5 7 5 4 4 3 3 2 3 4 7 3 2 12 22 24 16 13 17 18 17 17 18
25 27 21 30 24 21 10 5 5 8 10 5 1 7 4 0 4 6 3 3 4 7 4 4 6 0 4 2 1 1 2 10 11 10 6 14 17 24 19 15 15 13 14 16 17
22 19 20 20 14 3 3 5 1 5 11 9 7 7 3 1 3 4 3 5 5 2 2 4 0 3 2 2 1 1 7 9 12 4 7 13 20 20 14 8 6 8 11 14 12
20 16 10 11 6 9 8 5 5 2 7 4 3 4 2 4 3 3 3 2 1 3 2 3 3 3 2 2 7 9 9 8 10 7 11 11 9 4 2 4 6 9 13 12 13
18 16 11 4 6 2 4 6 5 3 8 8 6 3 3 2 4 1 2 1 1 2 2 3 2 1 2 5 6 6 7 13 11 7 4 2 7 2 11 9 12 17 16 14 15
12 10 13 8 4 4 4 6 5 3 9 5 4 2 2 3 2 1 1 2 1 4 4 5 2 3 4 5 8 9 1 7 8 9 6 1 5 3 13 13 19 22 14 13 13
15 11 5 6 4 1 5 5 4 9 1 5 2 2 2 2 2 1 1 2 1 2 5 7 3 4 5 4 11 9 10 9 8 3 3 3 4 2 7 8 12 18 13 12 13
9 13 7 2 0 5 3 4 7 8 2 3 1 1 1 2 3 2 1 3 1 4 4 4 4 4 2 4 2 5 4 3 3 1 4 4 4 5 8 11 9 16 13 14 14
5 8 5 2 3 3 3 7 11 2 3 1 1 2 2 1 1 2 1 3 2 1 2 4 8 5 6 5 3 2 1 2 4 4 4 2 4 3 11 9 11 13 11 15 15
5 4 3 5 5 2 6 7 7 5 4 4 1 2 3 1 1 1 3 2 4 7 1 3 7 2 6 3 2 2 2 2 4 2 3 3 1 3 13 11 11 13 16 14 15
4 2 3 7 4 5 7 3 1 1 2 1 3 2 1 2 1 2 2 2 2 6 1 1 7 4 3 2 4 3 3 2 1 5 4 3 2 5 10 11 8 10 11 11 13
4 4 4 5 3 6 5 3 2 5 3 1 1 1 3 2 1 2 2 3 2 1 4 2 2 7 2 2 0 1 2 2 1 2 2 4 2 4 4 5 6 4 1 5 7
3 4 2 2 6 2 2 1 1 1 0 1 2 3 2 1 2 3 4 5 6 5 3 4 3 6 8 3 2 2 3 3 2 2 1 1 5 6 6 2 2 2 3 4 4
3 1 3 4 4 3 2 3 2 2 2 2 2 1 1 2 2 3 2 1 5 5 4 3 2 6 8 5 2 2 2 2 1 2 4 1 4 2 3 3 4 2 2 3 3
3 3 5 6 3 4 2 2 1 1 1 1 2 1 2 2 2 3 2 1 4 2 2 4 3 7 7 7 2 5 3 3 2 2 2 6 6 5 5 5 4 5 4 4 2
4 1 2 1 2 5 4 1 2 3 1 3 1 3 1 2 3 3 2 4 1 2 2 4 5 5 8 13 6 8 10 6 6 5 6 4 6 6 8 8 7 5 4 4 4
3 4 3 2 1 4 1 6 3 3 3 1 1 3 2 4 6 4 1 3 5 3 1 1 4 2 7 3 5 7 10 9 6 5 8 5 8 10 4 5 5 8 7 6 6
1 1 4 2 2 3 5 6 8 5 3 4 4 1 4 8 6 7 6 4 3 1 2 0 2 4 7 2 7 6 7 8 6 5 6 7 9 5 5 8 9 9 8 8 7
Wind_Direction
177 162 256 342 0 58 70 85 44 190 151 145 137 128 110 94 86 43 50 183 33 7 26 11 31 19 34 56 26 108 79 169 227 178 322 10 15 313 321 265 324 296 267 261 319
192 170 175 221 219 55 83 58 84 10 156 147 136 133 118 130 83 58 343 41 36 24 44 62 42 47 52 39 24 68 131 191 181 88 328 313 287 317 311 281 280 283 278 308 320
170 161 157 158 133 112 86 29 355 171 152 138 137 136 121 42 67 350 340 32 35 43 68 80 55 63 67 46 3 28 154 211 69 86 353 275 292 287 244 253 233 253 279 303 300
147 139 170 146 138 134 359 110 20 126 125 129 139 129 127 34 85 292 42 44 46 61 56 40 40 57 71 81 328 123 69 53 278 285 320 282 294 256 229 255 254 230 245 280 288
133 121 259 198 148 151 101 224 101 158 134 147 141 137 92 59 70 312 50 29 35 56 55 70 54 88 94 97 56 122 211 283 255 274 246 235 246 254 253 242 242 263 260 260 263
115 123 237 147 149 162 160 87 117 163 142 156 144 128 81 83 318 8 57 42 40 60 47 49 84 86 100 86 72 262 262 263 277 274 264 255 264 198 251 235 248 245 250 249 250
64 127 118 111 222 175 160 181 214 134 131 140 120 108 65 73 328 66 61 29 18 60 71 27 92 81 136 116 304 311 321 311 218 218 287 291 252 226 249 259 257 263 266 263 253
81 78 54 308 262 213 151 136 127 126 124 125 103 78 79 322 251 50 40 40 39 47 83 44 61 95 59 87 22 43 41 345 250 339 313 75 280 242 242 277 270 275 277 274 261
36 13 358 340 151 158 125 120 108 109 112 103 52 85 81 308 47 337 52 91 43 31 31 54 60 75 28 62 15 14 279 284 308 200 268 229 287 249 268 276 280 282 281 276 272
0 355 91 94 93 97 98 97 104 57 26 38 76 66 347 112 63 35 30 65 56 11 22 36 42 60 34 66 239 254 326 289 252 268 328 285 274 283 288 256 264 274 280 277 271
76 61 69 86 78 82 83 8 25 29 32 78 348 73 99 20 38 25 5 52 41 54 33 8 56 227 225 202 81 100 261 276 271 268 296 272 279 280 295 286 275 280 291 288 275
75 71 68 66 48 50 91 84 39 152 65 31 53 64 84 93 79 15 31 52 45 357 300 19 121 211 164 141 211 198 284 290 291 279 204 276 286 292 292 277 281 292 301 301 288
59 64 51 43 29 42 72 54 317 317 90 19 37 57 354 53 64 15 29 110 105 344 344 154 259 123 192 252 290 281 254 258 240 317 272 273 263 272 289 295 283 301 303 289 273
41 33 12 350 47 337 40 327 327 277 82 346 0 16 25 88 55 5 48 103 356 298 342 237 320 210 247 264 222 278 217 245 271 293 309 7 297 342 343 319 338 325 312 306 305
43 40 36 50 125 50 339 327 312 56 70 304 329 289 30 67 160 283 247 70 353 351 10 267 257 251 271 243 164 240 265 269 262 264 288 182 264 286 352 339 335 321 310 336 343
33 42 96 22 47 5 312 318 36 45 329 317 301 18 348 186 208 304 326 29 55 291 210 252 204 247 236 278 228 264 307 278 255 258 254 207 200 325 4 325 312 326 344 5 30
37 38 55 69 246 327 335 43 45 86 258 262 158 91 324 249 203 194 38 317 258 344 354 306 217 249 202 290 220 231 273 317 345 336 240 186 164 279 339 348 328 324 21 23 37
38 28 11 82 311 336 51 46 67 249 210 341 103 357 291 247 149 153 305 313 201 188 306 356 327 196 167 220 233 212 274 315 294 312 303 183 307 18 3 7 357 359 17 38 33
61 356 17 336 350 38 67 50 173 207 172 152 115 241 290 355 182 326 200 246 208 193 54 336 273 282 193 191 196 251 276 207 274 259 287 303 293 148 2 4 14 14 23 26 25
94 42 304 328 1 56 71 108 51 246 285 225 207 184 290 290 50 19 344 227 247 193 180 238 288 240 299 155 239 228 275 335 3 347 316 351 356 345 341 348 26 10 22 17 21
57 60 271 345 57 46 104 184 199 218 191 197 300 313 263 337 186 276 256 275 231 144 160 200 192 286 320 188 182 319 353 313 337 172 299 310 333 231 258 317 11 47 342 358 43
95 60 299 18 53 38 68 136 199 333 82 197 171 218 219 183 250 238 234 223 180 162 198 206 181 270 238 222 202 245 189 151 129 305 263 258 266 181 215 231 347 32 17 48 49
85 259 317 100 82 26 327 19 354 20 24 1 308 353 356 268 304 220 251 288 176 173 187 183 272 319 351 5 7 198 189 207 127 77 232 176 268 207 245 160 137 210 294 327 13
62 36 342 45 143 104 31 1 336 330 155 321 307 120 9 318 217 284 285 295 318 227 248 155 198 195 203 228 197 281 230 169 186 149 200 230 289 257 247 241 214 202 227 259 310
40 289 200 217 0 127 126 340 338 345 19 0 110 92 125 296 307 241 240 300 305 344 116 161 253 195 251 252 237 247 254 212 187 224 184 204 223 242 217 209 218 222 233 270 298
112 130 353 147 313 134 154 170 187 270 194 258 140 330 221 233 214 259 227 226 242 334 105 6 270 327 275 252 200 261 238 226 221 215 251 262 269 218 222 182 187 208 209 230 244
281 77 107 292 156 124 219 187 181 153 228 221 196 203 235 233 215 224 217 236 222 291 296 298 344 4 273 321 297 291 231 186 200 194 163 192 231 164 202 213 213 212 204 215 223